Location: Rockford
(42.2710°N, 89.0940°W)
Time: 04:51:06
(UTC-05:00)

SPOT 5 - Visible Passes

Search period start: 28 May 2016 00:00
Search period end: 07 June 2016 00:00
Orbit: 623 x 817 km, 98.5° (Epoch: 27 May)

Date Brightness Start Highest point End Pass type
(mag) Time Alt. Az. Time Alt. Az. Time Alt. Az.
28 May 3.9 22:13:36 12° SSW 22:17:21 35° W 22:21:21 10° NNW visible
29 May 2.7 21:23:00 10° SSE 21:27:18 65° ENE 21:31:36 10° N visible
29 May 5.3 23:04:33 10° WSW 23:05:49 11° W 23:07:05 10° WNW visible
30 May 3.8 22:11:38 11° SSW 22:15:26 37° W 22:19:28 10° NNW visible
31 May 2.7 21:21:06 10° SSE 21:25:24 61° ENE 21:29:41 10° N visible
31 May 5.2 23:02:21 10° WSW 23:03:53 12° W 23:05:26 10° WNW visible
01 Jun 3.7 22:09:40 11° SSW 22:13:32 39° W 22:17:36 10° NNW visible
02 Jun 2.8 21:19:15 10° SSE 21:23:30 58° ENE 21:27:45 10° N visible
02 Jun 5.2 23:00:12 10° WSW 23:01:59 12° W 23:03:45 10° WNW visible
03 Jun 3.6 22:07:41 11° S 22:11:37 41° W 22:15:44 10° NNW visible
04 Jun 2.8 21:17:23 10° SSE 21:21:36 55° ENE 21:25:51 10° N visible
04 Jun 5.2 22:58:04 10° WSW 23:00:04 13° W 23:02:03 10° WNW visible
05 Jun 3.5 22:05:43 11° S 22:09:42 43° W 22:13:51 10° NNW visible
06 Jun 2.9 21:15:31 10° SSE 21:19:42 52° ENE 21:23:56 10° N visible
06 Jun 5.1 22:55:57 10° WSW 22:58:08 14° W 23:00:20 10° WNW visible
